COSMOS 2251 DEB, 33758

Orbit data source: Space-Track

COSMOS 2251 DEB, 33758 is space debris in LEO originally from a launch on Wed, 16 Jun 1993 UTC launched from the Plesetsk Missile And Space Complex (PKMTR). The debris from Iridium 33, an American commercial communications satellite, has been tracked extensively since its accidental collision with the defunct Russian satellite Cosmos 2251 in 2009. This event, occurring at high speed in low Earth orbit (LEO), generated thousands of pieces of space debris, significantly increasing the risk of further collisions. The Iridium 33 debris cloud has impacted space traffic management and orbital debris mitigation strategies, making it a subject of ongoing study in space situational awareness.

Loading next visibility...
Identifier
33758, 1993-036F
Orbit
LEO
Country
Flag of CISCIS
Related business
Manufacturer
Unknown
Mission
Spacecraft
Bus & Motor
Unknown
Mass
Unknown
Launch date (UTC)
1993-06-16 (33 years ago)
Launch vehicle
Unknown
Launch site
Plesetsk Missile And Space Complex (PKMTR)
Object type
Payload
Rocket body
Debris
Shape & HBR
Unknown shape, 0.3 m
Radar Cross Section
Small (<0.1 m²)

Expand to show TLE details & history
Last TLE update: 10 hours ago

TLE from 10 hours ago
0 COSMOS 2251 DEB
1 33758U 93036F   25355.04073551  .00001968  00000-0  49693-3 0  9990
2 33758  74.0264 199.3942 0017200 265.5651 213.6180 14.51638042884250
Epoch: 2025-12-21T00:58Z
TLE epoch observation values (Epoch: 2025-12-21T00:58:39.548Z)
Latitude
57.27426°
Longitude
-111.42829°
Altitude
739.742 km
Speed
7.485 km/s
True Right ascension
23h 32m 22s
True Declination
57° 07' 02"
Sunlit
Object was in daylight at epoch
Visualization orbit readout
Latitude
Unknown
Longitude
Unknown
Altitude
Unknown
Speed
Unknown
Apparent Right ascension
Unknown
Apparent Declination
Unknown
Sunlit
N/A
Visualization observer readout
Local Sidereal Time
09:31:22
Azimuth
Unknown
Elevation
Unknown
Doppler factor
Unknown
Orbital elements
Apogee altitude
730.116 km
Perigee altitude
705.706 km
Semi-major axis
7,096.048 km
Eccentricity
0.00172
Inclination
74.0264°
RAAN
199.3942°
Arg. of periapsis
265.5651°
True anomaly
213.50907°
Mean anomaly
213.618°
Eccentric anomaly
213.56352°
Mean motion
3.63093 °/min
Orbital period
99.15 mins
BSTAR
0.00049693
Loading maneuver chart data...
Computing Atmospheric mass density...
Loading historical data...
Loading historical data...
Loading historical data...
Loading historical data...
Loading historical data...
Loading historical data...
Loading historical data...

Documentation

Showing up to 5 results
|